This demonstration page uses our WeatherBlox Daily Observations layout. Learn more.

Left ArrowRight Arrow

53.62937, 11.41316

Hourly Observations for December 3, 2021

Temp ( °F °C ) Dew Point ( °F °C ) Humidity (%) Winds ( mph kmh ) Pressure ( in mb ) Visibility ( mi km ) Precip ( " mm )
12:20 am 00:20 Mostly Clear 32 0 28 -2 87 87 WSW 9 15 29.65 1004 30 48 N/A
12:50 am 00:50 Mostly Clear 32 0 28 -2 87 87 WSW 10 17 29.62 1003 30 48 N/A
1:20 am 01:20 Partly Cloudy 34 1 30 -1 87 87 WSW 10 17 29.65 1004 30 48 N/A
1:50 am 01:50 Partly Cloudy 34 1 30 -1 87 87 WSW 10 17 29.65 1004 30 48 N/A
2:20 am 02:20 Mostly Clear 32 0 30 -1 93 93 WSW 9 15 29.65 1004 30 48 N/A
3:20 am 03:20 Partly Cloudy 34 1 30 -1 87 87 WSW 10 17 29.65 1004 30 48 N/A
3:50 am 03:50 Mostly Cloudy 34 1 32 0 93 93 W 10 17 29.65 1004 1 2 N/A
4:20 am 04:20 Mostly Clear 34 1 32 0 93 93 WSW 9 15 29.65 1004 30 48 N/A
4:50 am 04:50 Mostly Clear 32 0 30 -1 93 93 SW 6 9 29.65 1004 30 48 N/A
5:20 am 05:20 Mostly Cloudy 34 1 32 0 93 93 WSW 10 17 29.65 1004 30 48 N/A
5:50 am 05:50 Mostly Cloudy 34 1 32 0 93 93 WSW 10 17 29.65 1004 30 48 N/A
6:20 am 06:20 Partly Cloudy 34 1 32 0 93 93 WSW 10 17 29.65 1004 30 48 N/A
6:50 am 06:50 Partly Cloudy 34 1 32 0 93 93 WSW 8 13 29.65 1004 30 48 N/A
7:20 am 07:20 Mostly Clear 34 1 32 0 93 93 VRB 7 11 29.65 1004 30 48 N/A
7:50 am 07:50 Mostly Clear 34 1 30 -1 87 87 SW 6 9 29.68 1005 7 11 N/A
8:20 am 08:20 Mostly Sunny 34 1 30 -1 87 87 SW 6 9 29.68 1005 30 48 N/A
8:50 am 08:50 Mostly Sunny 34 1 30 -1 87 87 SSW 8 13 29.68 1005 30 48 N/A
9:20 am 09:20 Mostly Sunny 34 1 32 0 93 93 VRB 5 7 29.68 1005 30 48 N/A
9:50 am 09:50 Mostly Sunny 34 1 30 -1 87 87 VRB 5 7 29.68 1005 30 48 N/A
10:20 am 10:20 Mostly Sunny 34 1 30 -1 87 87 VRB 6 9 29.68 1005 7 11 N/A
10:50 am 10:50 Mostly Sunny 34 1 30 -1 87 87 VRB 7 11 29.68 1005 7 11 N/A
11:20 am 11:20 Mostly Sunny 36 2 30 -1 81 81 SW 8 13 29.65 1004 7 11 N/A
11:50 am 11:50 Mostly Sunny 36 2 30 -1 81 81 SSW 9 15 29.65 1004 7 11 N/A
12:20 pm 12:20 Partly Cloudy 36 2 30 -1 81 81 VRB 9 15 29.65 1004 30 48 N/A
12:50 pm 12:50 Mostly Cloudy 36 2 32 0 87 87 SSW 8 13 29.65 1004 30 48 N/A
1:20 pm 13:20 Mostly Cloudy 36 2 32 0 87 87 VRB 7 11 29.62 1003 30 48 N/A
1:50 pm 13:50 Mostly Cloudy 36 2 32 0 87 87 SSW 7 11 29.62 1003 30 48 N/A
2:20 pm 14:20 Mostly Cloudy 36 2 32 0 87 87 SW 8 13 29.62 1003 30 48 N/A
2:50 pm 14:50 Mostly Cloudy 36 2 32 0 87 87 SSW 6 9 29.62 1003 30 48 N/A
3:20 pm 15:20 Partly Cloudy with Light Rain 36 2 32 0 87 87 VRB 6 9 29.59 1002 30 48 N/A
3:50 pm 15:50 Mostly Cloudy with Light Rain 36 2 32 0 87 87 VRB 7 11 29.59 1002 30 48 N/A
4:20 pm 16:20 Partly Cloudy with Light Rain 36 2 32 0 87 87 VRB 7 11 29.59 1002 30 48 N/A
4:50 pm 16:50 Mostly Cloudy with Light Rain/Snow 34 1 32 0 93 93 S 7 11 29.56 1001 4 7 N/A
5:20 pm 17:20 Mostly Cloudy with Light Rain/Snow 34 1 32 0 93 93 VRB 7 11 29.56 1001 3 5 N/A
5:50 pm 17:50 Mostly Cloudy with Light Rain/Snow 34 1 32 0 93 93 SSW 8 13 29.53 1000 3 5 N/A
6:20 pm 18:20 Mostly Cloudy with Light Snow 34 1 34 1 100 100 VRB 8 13 29.53 1000 3 5 N/A
6:50 pm 18:50 Mostly Cloudy with Light Rain 34 1 34 1 100 100 SSW 7 11 29.53 1000 2 4 N/A
7:20 pm 19:20 Mostly Cloudy with Light Rain 36 2 34 1 93 93 VRB 7 11 29.53 1000 5 8 N/A
7:50 pm 19:50 Mostly Cloudy with Light Rain 36 2 34 1 93 93 SSW 8 13 29.50 999 6 9 N/A
8:20 pm 20:20 Cloudy 36 2 34 1 93 93 SSW 8 13 29.50 999 5 8 N/A
8:50 pm 20:50 Cloudy with Light Rain 36 2 36 2 100 100 VRB 7 11 29.50 999 3 5 N/A

Powered by AerisWeather